CZ-2F DEB (46391 NORAD) Tracking and Keplerian Element Data

This shows tracking and keplerian element data for the satellite.

Feedback or suggestion? Click here.




ElementValue
Catalog46391
NameCZ-2F DEB
Epoch Orbit452
Epoch Day277.71729836
Epoch Year2020
RAAN277.8893
Inclination49.9016
Eccentricity0.0150502
Argument of Perigee269.3183
Mean Anonmoly89.0336
Mean Motion15.40303656
Decay Rate0.00066042
L11 46391U 20063C 20277.71729836 .00066042 00000-0 10695-2 0 9996
L22 46391 49.9016 277.8893 0150502 269.3183 89.0336 15.40303656 4526



Live tracking and technical data element details for CZ-2F DEB (NORAD 46391). CZ-2F DEB can be tracked NOW for your location showing map with azimuth and elevation plus other details from your city location.







IsCatalogInMostPopularTable: catalog: 46391, numindb: 142
Update: records affected: 1



GetName: 46391 CZ-2F DEB

Hit Count: updated at: Sun, 28 May 2023 19:46:18 GMT